Theta_e
325 327 332 330 330 331 335 350 347 350 349 344 343 343 343 340 344 345 344 337 340 345 347 349 343 333 331 331 330 330 330 331 331 332 333 333 334 334 335 335 335 336 337 337 336 334 333 334 335
328 327 330 325 330 336 339 339 351 348 346 344 343 343 346 350 346 343 341 340 339 342 346 344 341 332 331 331 330 330 331 331 331 333 334 334 334 335 335 335 336 336 336 338 340 342 338 334 334
328 327 327 327 327 333 339 344 348 345 343 346 342 343 344 347 344 342 341 339 336 339 341 342 339 331 330 330 330 330 331 331 332 334 334 334 334 335 335 336 336 336 336 338 338 337 336 335 335
327 325 323 329 335 332 347 348 345 346 345 346 346 349 345 344 343 342 340 337 334 337 339 339 334 330 330 330 331 331 332 333 333 333 333 334 336 337 337 337 337 338 340 340 338 338 338 338 337
324 320 324 325 334 334 344 345 345 347 345 347 345 348 347 345 345 342 340 333 332 335 336 334 333 332 331 331 332 332 333 332 333 334 337 339 341 342 342 339 337 339 341 342 342 340 339 339 339
318 317 321 324 331 332 339 345 343 341 345 344 345 345 345 345 344 342 341 333 331 331 332 333 333 333 333 333 334 333 333 333 337 340 341 340 340 341 342 342 342 340 338 339 337 337 336 337 337
320 320 324 329 333 333 338 337 340 341 343 345 341 347 345 344 342 342 341 335 335 333 334 334 333 334 335 335 333 333 333 336 339 339 337 336 334 333 335 337 340 334 329 335 338 331 329 330 334
318 321 332 332 331 336 332 338 337 340 343 339 340 346 348 344 343 342 341 342 341 336 334 331 331 332 331 332 332 333 336 339 339 336 333 331 330 329 331 333 335 327 326 335 330 327 326 327 328
320 320 324 333 333 333 333 338 337 336 340 342 342 341 342 346 344 343 345 343 341 337 333 331 330 330 331 332 334 335 338 339 339 334 331 329 328 326 324 323 323 324 325 327 326 325 324 324 324
319 318 321 325 329 330 334 338 338 340 341 344 344 342 345 347 346 346 345 342 339 336 333 335 336 333 335 336 337 338 339 340 337 332 330 328 326 325 324 323 324 323 322 323 323 323 322 321 321
316 316 317 321 328 327 334 335 337 339 343 342 344 342 343 345 346 347 345 343 339 336 334 335 336 336 338 339 342 344 341 342 336 330 329 326 326 326 325 324 324 323 322 321 321 321 320 319 319
318 317 320 326 332 325 330 332 342 337 341 340 340 339 341 343 344 345 344 344 344 344 343 339 338 339 345 348 344 341 341 336 332 329 328 328 327 327 326 326 324 322 322 322 321 321 320 319 318
318 318 319 325 327 323 328 334 340 340 337 339 339 339 340 341 342 342 342 342 345 345 345 345 344 346 339 334 338 332 329 330 332 329 327 327 327 327 326 327 326 324 322 322 321 320 319 319 318
318 317 319 318 323 323 329 329 340 337 340 341 339 339 337 338 338 339 340 340 343 342 345 345 340 329 328 327 327 327 327 327 327 326 326 325 325 325 325 326 326 325 323 323 321 321 320 320 319
317 319 316 317 324 326 326 330 331 332 342 341 341 338 336 336 338 338 337 339 342 337 336 331 329 329 328 328 327 327 326 325 326 326 325 324 323 322 322 324 325 324 324 323 322 322 321 321 320
317 315 318 319 323 326 325 326 327 338 343 341 339 337 336 336 334 336 336 335 338 336 333 331 329 329 328 327 326 325 326 328 327 325 323 319 317 317 317 318 317 316 317 318 320 320 319 318 317
316 320 320 321 318 326 322 324 324 339 343 341 339 337 336 335 334 335 332 333 333 334 331 331 331 330 328 327 328 328 329 329 328 323 318 315 314 314 315 315 315 314 313 314 314 318 318 316 315
323 323 321 321 320 317 318 318 320 331 341 338 337 337 337 335 333 332 333 332 333 331 330 333 333 331 329 329 330 330 330 331 329 319 316 316 315 315 316 316 315 313 313 313 314 316 316 315 315
320 323 324 323 320 318 320 323 324 333 336 336 335 335 335 334 331 331 332 333 333 332 332 333 331 330 330 331 331 332 332 330 320 318 317 317 317 317 316 315 314 313 312 312 313 314 317 316 316
321 322 321 321 320 320 325 325 326 332 337 337 335 333 333 332 331 331 331 331 333 331 332 330 331 330 330 331 332 331 330 321 319 317 317 317 317 317 315 313 312 311 311 310 313 313 314 315 315
322 323 324 324 321 318 323 326 322 327 335 337 335 333 331 330 330 330 331 331 334 330 331 332 330 330 331 333 332 330 321 319 317 316 316 317 317 316 314 312 311 310 310 311 313 313 312 313 312
325 323 324 324 322 322 318 328 323 323 331 334 335 333 332 330 329 329 330 331 332 330 330 332 332 331 333 332 325 321 320 318 318 318 318 317 316 313 313 311 311 310 310 310 311 312 313 312 312
325 321 323 321 319 319 318 324 322 323 331 331 332 333 332 330 329 328 329 330 331 330 330 333 332 332 331 325 322 320 320 319 318 317 317 315 313 313 312 312 311 310 310 309 310 313 312 312 311
321 321 317 317 316 319 319 323 323 323 324 324 322 322 330 331 329 328 330 331 331 330 330 333 333 330 326 323 321 321 319 317 316 316 314 313 313 312 311 309 309 310 309 309 309 312 312 310 310
319 318 319 319 321 322 318 322 321 319 320 321 322 324 325 329 329 328 329 329 329 329 330 332 330 325 323 321 320 316 315 317 315 314 313 313 310 308 308 308 308 308 308 308 308 311 311 309 308
321 319 320 326 323 321 320 325 322 320 320 319 321 327 330 330 328 327 328 328 329 330 328 326 323 321 319 317 315 315 316 316 314 313 312 309 307 307 307 308 308 308 308 309 308 310 309 308 308
324 323 318 319 320 322 320 322 320 322 322 320 322 328 329 329 326 325 326 327 325 324 326 323 320 318 315 314 314 316 316 314 313 311 308 307 307 308 308 308 308 309 308 308 308 308 308 307 307
324 319 325 320 327 329 323 324 323 323 322 320 321 322 324 323 323 323 325 324 320 320 319 318 316 314 314 314 315 315 314 313 312 309 308 307 307 309 308 308 308 309 308 307 307 307 307 307 307
325 322 319 318 321 324 324 321 318 320 319 319 319 318 318 317 317 319 320 318 317 317 316 314 314 314 314 314 314 314 313 312 310 308 307 307 309 308 308 308 308 308 307 307 307 307 307 308 308
323 321 318 323 322 321 319 321 317 318 317 317 317 316 314 313 313 313 315 315 315 314 314 314 314 313 313 314 314 312 311 310 309 308 307 309 309 308 308 308 308 308 307 307 307 307 307 307 308
Wind_Speed
5 11 11 4 5 6 3 3 1 3 1 2 6 3 3 2 1 2 2 9 14 17 17 13 11 10 10 8 8 9 8 9 9 9 9 9 9 9 8 8 8 8 7 7 7 7 6 6 5
4 12 3 3 6 4 4 3 4 3 2 6 5 4 2 2 1 3 10 10 13 16 17 14 12 10 9 8 7 7 7 7 7 7 7 8 8 8 8 8 8 8 8 7 7 8 8 7 6
6 3 3 5 4 4 4 3 3 4 6 3 3 2 2 1 1 10 4 13 16 16 15 14 12 10 9 8 7 6 5 5 5 6 6 7 8 8 9 9 9 9 9 9 9 8 9 10 9
3 4 4 5 3 3 6 6 5 6 2 3 4 4 2 2 10 8 14 16 18 16 15 14 12 11 9 7 5 4 4 4 4 5 6 7 8 8 8 9 9 9 10 10 10 11 11 12 12
7 4 4 4 3 1 2 7 8 5 2 2 2 4 1 2 7 13 18 17 17 15 14 12 11 9 8 6 5 3 2 2 4 5 6 6 6 7 8 8 9 8 9 9 10 10 11 11 10
4 3 5 2 4 3 1 8 7 4 3 2 4 3 1 3 13 15 15 14 13 13 13 12 11 9 8 6 4 2 1 2 3 4 4 4 5 5 5 6 7 7 8 7 7 8 9 9 8
5 4 4 4 2 3 6 5 6 6 5 4 6 3 2 3 11 14 11 11 11 12 11 11 10 9 7 6 4 3 3 2 2 2 3 5 5 7 8 6 4 5 8 6 5 6 8 9 8
5 4 3 4 4 5 6 8 6 7 5 3 3 5 4 3 13 15 12 13 14 14 13 13 11 10 8 6 6 5 5 4 1 1 2 2 5 6 6 6 5 5 7 5 3 4 6 9 10
4 4 1 4 5 3 7 5 2 5 6 4 6 6 8 18 19 17 17 16 16 20 19 16 13 12 9 7 7 5 5 4 2 1 1 1 2 5 7 6 6 7 5 1 2 4 6 8 11
4 4 8 7 6 7 12 5 11 5 9 5 4 7 20 23 23 26 22 22 21 21 22 21 18 16 14 12 9 7 6 5 4 4 3 3 4 5 7 7 11 11 8 5 5 5 6 9 10
3 5 5 5 7 8 13 6 6 10 6 9 15 12 16 16 21 23 18 21 27 24 19 19 18 16 14 11 9 7 6 7 5 4 5 7 9 9 9 9 9 8 10 9 12 11 11 11 9
2 7 3 3 8 8 11 10 6 15 9 9 15 18 18 15 19 21 19 17 21 19 18 17 14 13 12 12 11 9 7 5 5 4 6 10 13 14 14 16 13 10 10 11 10 11 10 9 8
4 4 5 3 6 5 10 9 8 15 5 11 11 14 12 12 16 13 11 13 17 14 14 15 15 11 10 10 11 10 7 4 4 3 8 10 11 13 15 15 14 14 14 14 13 13 12 10 8
3 5 1 6 4 4 7 5 9 8 7 9 13 12 7 9 6 9 1 7 13 11 11 12 12 12 13 13 11 10 7 4 1 3 4 8 11 13 13 14 14 14 14 15 16 14 14 12 10
2 2 7 6 4 3 9 3 10 5 11 10 11 9 7 5 3 7 4 10 14 13 14 13 13 12 11 11 9 7 3 0 3 2 5 9 12 13 12 11 12 13 13 12 12 12 12 11 9
5 6 4 4 3 3 6 8 9 9 16 10 9 8 7 4 4 7 4 3 11 16 14 14 13 12 10 9 6 3 1 1 1 3 7 12 14 14 13 13 14 16 17 17 15 13 12 13 14
8 3 4 4 4 4 2 1 6 9 14 11 9 6 5 4 3 8 2 1 6 13 13 16 15 12 10 7 5 3 3 2 2 5 10 12 14 15 12 12 18 19 19 20 20 19 18 18 19
1 3 3 3 6 7 5 4 6 3 4 4 4 4 3 5 7 6 1 2 5 10 11 14 14 12 9 6 5 4 4 3 6 7 12 13 14 14 14 16 18 16 17 18 19 21 22 22 20
6 3 2 3 4 5 4 4 7 3 6 6 5 5 6 7 4 6 4 3 2 6 9 12 13 11 9 7 7 7 7 9 8 10 12 12 13 13 14 16 17 19 19 19 19 18 17 16 13
5 2 3 4 5 6 2 7 5 4 2 1 3 6 8 5 4 11 7 7 4 5 9 9 13 11 10 10 10 8 9 10 12 12 11 13 13 14 16 15 17 17 20 20 15 13 11 8 7
1 4 1 3 4 6 4 7 7 2 3 2 1 2 5 7 8 5 9 8 9 9 10 14 12 12 11 9 9 11 10 12 15 15 17 15 15 15 15 17 15 16 18 19 17 17 13 10 9
1 2 2 3 4 2 3 2 4 5 5 3 4 5 7 7 6 6 9 14 13 12 10 12 14 14 12 13 12 10 12 16 17 17 17 16 15 19 18 18 16 16 15 16 18 18 12 10 10
2 3 3 3 4 4 8 5 5 3 3 5 6 8 8 7 8 8 12 15 16 14 11 14 16 17 14 13 11 12 15 16 18 18 16 17 20 20 20 20 20 20 23 22 19 14 12 11 11
2 4 7 4 4 4 5 3 3 4 6 3 4 6 8 7 7 9 13 13 14 15 15 15 16 16 13 12 12 14 16 17 18 16 18 20 22 21 22 22 20 20 20 18 18 15 13 9 11
7 7 4 6 6 3 5 3 7 5 4 5 7 8 8 7 6 5 8 10 12 15 17 14 15 11 10 11 12 12 15 15 13 16 18 19 22 24 24 22 20 19 18 17 16 15 15 15 18
4 5 5 1 1 5 5 0 5 2 3 4 5 6 6 7 3 6 9 11 13 12 10 10 7 8 9 8 12 16 16 14 15 16 15 18 20 22 21 21 20 21 18 18 17 16 19 23 25
2 4 4 6 2 2 3 5 6 0 2 1 5 6 8 5 6 7 10 14 8 10 9 6 7 7 8 12 15 14 13 15 15 14 17 21 19 20 22 22 21 19 21 19 17 19 19 20 19
3 5 4 3 1 3 4 4 5 5 8 7 8 9 7 5 5 5 10 9 6 3 4 5 6 7 10 12 12 12 13 14 14 16 18 20 21 20 24 22 20 19 20 17 15 16 17 14 14
2 2 6 4 4 5 1 5 7 9 10 11 9 7 7 6 5 6 4 5 5 5 6 6 7 9 11 10 11 13 14 15 17 17 21 20 19 23 21 19 17 17 18 15 15 15 14 12 12
2 3 4 5 4 1 3 7 4 7 9 9 6 6 5 4 3 1 6 7 7 9 10 9 10 12 12 11 12 13 13 17 17 19 20 19 21 21 17 17 17 16 16 15 13 12 10 11 10
Wind_Direction
108 132 133 102 56 64 355 318 287 106 159 240 118 106 143 103 150 222 326 160 157 157 162 165 161 154 143 132 119 108 99 90 81 75 69 63 57 50 45 40 38 39 31 25 26 28 27 24 22
124 131 102 83 83 64 295 263 136 236 137 107 74 94 63 53 96 117 132 150 163 163 163 164 163 159 152 141 127 115 103 88 78 66 59 50 40 34 27 20 15 8 6 3 0 354 350 356 358
121 141 77 88 103 153 188 230 164 106 135 98 110 100 112 174 102 160 215 166 165 167 164 165 166 164 159 153 146 131 116 93 75 57 44 38 30 20 15 6 4 358 353 348 348 345 341 335 334
142 32 34 74 111 218 174 166 136 153 78 79 117 81 95 228 160 175 157 167 167 166 168 169 171 172 169 162 154 144 107 78 54 44 39 32 25 20 14 3 357 357 357 353 350 346 343 334 329
39 55 54 62 329 209 150 152 156 159 96 134 146 167 59 4 161 156 159 166 170 167 170 174 179 181 179 175 169 149 106 64 47 47 43 37 29 22 19 13 4 358 354 350 350 348 343 339 335
37 88 49 58 316 339 36 166 156 135 114 187 118 104 234 186 152 159 163 164 171 173 178 181 184 191 188 187 186 168 125 82 66 44 46 29 8 26 16 7 15 14 357 351 355 353 346 340 334
104 82 162 202 147 223 186 179 178 134 138 231 161 97 322 203 160 159 160 165 175 182 184 191 188 197 206 210 194 177 151 129 85 63 359 36 40 32 26 19 10 349 346 346 2 13 19 13 7
106 88 147 236 152 246 191 165 130 123 199 104 192 174 194 196 164 158 160 176 181 185 187 192 194 201 201 208 202 179 161 150 144 23 355 65 64 44 46 29 10 360 7 13 41 30 11 4 2
132 72 244 240 164 218 169 137 143 139 134 224 188 153 163 157 163 157 186 183 186 185 182 179 188 189 188 192 192 196 190 189 195 283 311 148 29 11 8 13 2 338 333 344 324 330 347 349 343
103 130 219 208 190 184 177 122 151 131 160 256 104 88 143 159 163 184 187 185 190 193 193 178 179 185 178 179 189 197 218 225 223 244 253 266 313 322 333 341 339 341 325 317 310 313 328 341 349
158 205 203 238 199 170 159 129 154 137 211 230 169 151 155 168 178 198 199 196 192 192 199 201 191 189 187 189 193 198 227 232 239 250 265 285 301 292 299 309 308 311 311 295 303 296 305 318 328
276 248 203 263 179 143 171 139 147 169 205 210 175 162 163 182 189 206 205 207 202 198 200 203 203 208 206 219 223 203 207 213 241 251 281 298 306 300 307 317 308 298 283 275 274 272 277 286 290
213 259 167 195 183 108 127 174 154 212 312 154 133 168 182 187 199 215 220 211 211 207 209 207 206 213 201 178 157 152 146 184 203 280 306 298 310 306 308 308 306 301 294 282 274 267 258 255 261
232 284 90 107 197 132 124 135 118 237 155 146 156 181 174 204 175 204 179 201 196 191 175 185 182 170 159 148 152 144 148 150 205 295 322 331 336 332 326 319 313 308 302 292 285 280 268 264 262
259 347 22 17 157 126 113 72 223 181 166 160 174 174 174 195 151 146 178 219 194 186 177 168 169 166 161 160 157 160 133 10 295 316 342 348 351 348 345 338 330 325 319 314 309 296 279 280 277
46 53 61 315 35 212 120 246 242 185 166 173 178 174 173 132 119 152 134 183 205 200 191 174 184 178 178 176 165 141 88 269 48 10 3 354 350 347 341 333 330 325 317 310 306 298 290 288 292
13 50 19 333 23 141 87 153 294 190 183 177 174 183 173 128 151 180 129 139 196 199 185 191 191 191 194 175 154 151 196 200 312 339 352 351 347 341 337 332 329 324 316 304 296 285 283 284 291
222 67 20 52 346 45 48 51 346 306 205 92 127 158 174 183 212 180 90 117 189 200 204 200 195 206 193 182 187 202 217 275 312 326 338 336 333 329 327 329 328 327 321 314 314 304 284 281 285
96 83 90 310 0 77 37 76 342 358 74 122 174 181 220 230 247 228 245 249 235 221 225 206 205 210 211 203 225 255 267 298 290 315 319 316 318 319 321 325 322 319 318 314 310 307 301 291 272
66 42 343 298 11 88 20 39 77 34 38 352 187 218 235 279 260 241 265 264 268 253 233 231 220 229 236 250 260 267 287 292 299 310 314 317 314 318 322 321 316 317 319 314 310 313 310 298 279
74 135 226 224 19 46 41 7 359 64 85 49 103 260 270 256 270 284 272 268 254 269 244 236 231 243 248 255 263 279 288 300 307 314 313 305 307 311 314 318 314 320 328 319 301 305 288 281 282
15 262 268 267 70 184 42 230 327 345 355 333 273 264 257 252 257 258 255 252 246 252 256 238 240 243 241 261 267 283 299 298 305 306 302 303 305 312 313 316 309 306 313 309 299 287 270 262 265
199 45 32 61 93 87 352 80 268 4 334 275 268 247 245 240 237 247 250 256 251 248 258 237 233 236 254 257 273 293 294 294 303 303 306 312 313 311 310 310 304 300 306 307 295 275 255 262 266
123 83 43 51 67 41 309 108 287 182 210 243 265 253 251 247 243 250 257 270 267 250 248 240 239 245 256 272 294 299 299 306 309 316 317 314 311 310 311 314 307 299 303 303 294 279 259 251 266
52 53 3 11 13 232 334 46 233 265 257 219 231 249 246 245 238 249 244 243 244 238 236 238 239 250 274 294 297 298 307 312 311 312 313 311 311 311 312 314 308 305 309 301 296 279 276 282 283
55 115 138 216 262 274 320 321 276 262 282 300 251 269 251 242 241 240 230 222 227 233 234 232 252 276 291 294 301 306 300 293 297 299 296 306 309 312 315 311 308 308 312 308 294 275 284 289 285
149 58 160 105 14 40 286 300 327 27 258 305 246 241 241 232 225 231 230 226 255 263 255 247 274 289 292 300 301 292 288 291 293 296 308 318 314 313 321 317 311 305 314 312 299 291 291 293 281
105 148 58 18 139 282 299 277 241 246 234 244 247 235 245 240 233 238 239 242 246 244 240 250 256 274 292 294 288 286 287 288 291 300 312 313 312 320 323 319 317 311 316 319 309 300 299 296 288
21 32 51 112 122 172 238 266 220 225 217 211 228 236 244 251 248 245 237 216 221 225 218 231 261 280 287 285 282 287 290 291 294 303 311 314 316 322 321 322 321 318 319 318 314 309 305 298 291
100 95 111 107 275 125 158 271 259 256 245 205 220 232 248 268 264 162 193 198 197 210 222 244 262 275 276 272 283 295 293 296 298 306 315 317 319 323 324 325 324 321 322 321 319 312 310 307 292